Wind_Speed
62 63 62 62 61 61 60 60 59 58 58 58 58 57 56 55 54 54 54 54 54 54 54 54 54 54 54 54 54 54 53 52 51 50 49 47 47 48 47 46 45 45 48
61 61 62 62 63 62 62 61 61 60 60 60 59 59 58 57 57 56 55 55 55 56 56 55 55 55 55 55 56 56 56 56 55 54 53 52 50 50 52 50 48 46 50
59 60 62 63 64 65 64 64 62 61 61 60 59 59 59 58 57 56 57 57 58 59 57 56 55 55 55 56 57 58 60 60 59 59 59 58 56 54 54 56 55 51 52
58 58 59 60 61 63 65 65 64 61 60 60 60 60 59 58 58 58 59 59 59 59 58 56 55 55 56 57 58 60 61 61 61 62 62 63 62 59 58 58 60 57 53
58 58 57 59 60 60 62 63 63 63 62 61 60 60 58 57 59 59 59 58 58 58 57 56 56 58 59 59 60 60 61 62 63 64 65 65 67 66 61 59 64 64 57
54 55 57 59 60 60 61 61 62 62 62 62 61 61 60 59 61 61 60 59 58 58 57 58 59 61 62 63 64 64 64 64 66 68 68 67 67 69 69 63 64 68 62
50 54 56 58 58 60 61 62 61 61 62 63 63 62 62 62 62 59 59 59 58 58 59 61 62 63 64 64 64 64 64 65 65 67 68 68 69 70 72 72 65 68 67
45 48 51 54 54 59 61 61 61 62 63 64 65 65 63 62 59 58 59 59 59 60 60 61 62 63 64 64 64 64 66 67 68 68 70 71 72 73 75 75 75 73 72
42 44 45 52 58 60 61 62 62 62 62 63 65 66 64 61 59 59 59 60 59 60 60 61 62 62 62 63 65 67 70 72 74 75 77 78 79 79 78 78 79 79 81
39 44 47 47 49 50 52 56 58 60 62 63 63 62 61 59 57 58 58 57 57 58 59 60 60 61 64 66 69 72 75 78 81 84 86 86 86 87 88 86 85 83 83
33 35 40 45 48 50 51 51 52 52 52 52 52 52 52 53 55 55 55 54 55 55 56 58 59 63 66 70 73 77 81 85 90 93 96 95 97 95 95 93 92 90 88
30 33 38 41 41 43 44 46 47 49 50 51 52 52 52 53 53 53 53 53 54 55 55 57 60 63 68 72 78 84 90 96 99 101 103 99 101 99 97 99 97 95 93
38 39 39 39 41 43 45 45 46 48 49 51 52 53 53 53 53 53 53 53 53 53 54 56 60 64 71 77 83 89 96 102 105 108 112 112 115 113 110 109 106 102 98
36 36 39 42 43 45 46 47 47 47 48 49 49 50 52 52 52 52 52 52 51 51 52 56 61 67 74 80 88 96 94 88 93 98 97 96 103 109 116 117 114 110 106
34 36 38 36 36 38 42 45 47 47 48 48 49 51 51 51 50 50 49 49 48 48 51 56 62 68 75 84 78 71 78 79 78 78 79 80 82 87 97 108 116 117 114
37 34 33 34 35 36 36 39 42 44 47 47 46 47 48 48 48 47 45 44 45 47 50 54 60 69 76 66 69 72 65 64 65 65 66 66 71 76 83 93 103 113 119
41 38 34 32 33 34 35 35 37 40 43 45 44 45 46 46 45 43 41 41 43 44 48 53 62 66 59 62 66 56 37 37 36 39 47 56 61 68 80 88 95 105 118
43 43 40 37 34 33 35 36 35 37 39 42 43 43 44 44 42 39 39 40 41 41 45 54 61 52 53 56 49 33 38 52 54 47 44 42 49 58 70 82 94 102 112
45 44 43 40 37 35 33 34 34 35 37 38 41 41 42 42 39 38 38 37 38 38 45 54 46 43 47 45 40 42 48 58 65 45 48 39 39 47 60 75 90 99 107
44 44 44 42 40 37 35 34 34 35 37 37 38 39 40 40 39 38 37 36 34 35 45 49 39 40 37 42 51 49 61 65 44 29 24 27 31 37 49 67 85 94 101
47 45 43 43 41 38 36 35 34 34 36 37 37 38 39 39 38 37 35 32 31 33 41 41 32 29 37 39 47 46 51 51 37 31 26 26 24 26 41 56 73 85 96
42 42 41 41 40 39 35 33 33 34 35 36 37 37 38 37 37 36 32 30 29 32 36 35 26 27 35 32 34 42 48 54 45 20 10 20 17 22 37 52 68 86 110
40 40 40 39 39 39 36 32 34 34 34 35 37 37 37 37 36 35 31 29 27 29 32 33 27 26 28 27 34 39 39 44 41 29 26 11 11 20 42 58 69 90 107
51 45 41 40 40 39 36 34 35 33 33 34 36 37 37 37 37 34 30 28 27 27 29 33 25 27 24 26 30 24 24 37 40 38 27 17 6 27 54 66 75 78 77
52 48 45 44 42 40 37 34 33 34 33 33 35 36 36 37 37 34 29 28 26 26 29 31 25 22 21 22 21 23 21 25 32 32 23 12 26 60 22 23 51 63 60
26 44 49 48 44 39 37 36 33 34 32 33 32 34 35 37 36 34 30 28 26 25 27 29 25 17 17 18 17 19 22 31 31 32 19 20 20 28 26 32 38 48 47
Wind_Direction
239 240 241 241 241 242 242 243 243 244 244 245 246 247 249 250 251 252 253 254 255 255 256 256 256 257 258 259 259 260 261 261 260 259 260 257 256 258 258 259 267 264 250
241 241 242 243 243 243 243 242 244 244 245 246 248 249 250 251 252 254 256 257 257 257 256 256 257 256 256 256 257 258 258 258 260 261 258 255 254 255 260 259 256 259 247
243 243 243 242 243 244 244 244 243 244 246 248 249 250 252 253 254 255 257 259 261 260 256 255 255 256 257 256 256 257 258 258 259 261 261 258 254 252 253 259 257 252 254
242 242 244 245 245 246 245 244 244 245 246 248 249 250 251 253 255 256 259 261 260 256 254 254 255 255 256 258 260 260 260 260 261 261 260 260 259 253 249 251 254 252 249
242 242 242 242 242 243 243 243 244 245 245 247 248 251 252 252 255 257 261 259 255 253 253 254 255 257 257 258 257 257 258 259 259 259 259 259 259 258 252 246 247 250 247
237 240 240 243 240 240 242 242 242 243 245 247 249 250 251 253 257 257 256 254 253 253 254 255 256 257 257 257 256 255 255 257 257 257 257 257 256 258 258 252 245 246 246
240 238 234 238 240 238 239 240 242 243 246 247 248 250 252 257 258 254 251 251 252 253 255 256 257 258 258 257 257 258 258 258 258 260 259 259 257 255 256 255 251 247 245
237 241 240 239 240 241 239 239 241 242 245 247 249 251 253 256 252 250 250 252 253 255 256 257 258 258 258 258 258 259 260 260 260 259 260 260 259 258 256 254 252 248 247
236 237 237 240 243 244 245 245 246 247 248 250 250 252 253 248 247 249 252 253 255 257 258 259 259 260 260 261 262 263 263 263 262 261 260 258 257 256 256 255 253 250 249
234 234 234 234 236 238 240 241 242 244 246 248 249 249 246 245 247 251 253 254 256 258 260 261 261 262 264 265 266 266 266 266 265 263 262 261 258 256 254 252 251 250 248
238 238 236 235 237 236 235 235 237 239 240 241 241 243 245 248 250 252 253 255 258 260 262 263 265 268 269 271 271 270 270 269 268 267 265 263 260 255 253 251 249 246 246
241 238 236 239 242 244 245 246 246 247 247 247 247 247 248 250 252 253 255 257 261 262 264 266 269 272 274 275 274 273 272 272 271 269 266 263 259 254 249 248 246 243 242
242 243 244 244 244 244 245 247 249 250 251 252 252 252 252 253 254 255 257 260 262 264 266 270 274 275 277 278 279 279 277 275 272 270 266 263 259 254 250 246 243 239 237
249 252 250 249 250 251 251 250 250 250 250 251 252 253 253 254 255 257 258 261 262 266 270 274 276 280 282 283 283 282 284 282 277 274 270 264 256 250 246 241 239 236 233
251 250 253 256 256 257 255 255 255 254 253 254 253 253 253 253 255 256 258 260 264 269 273 278 283 285 287 288 293 293 294 286 279 273 269 267 261 250 241 237 232 230 228
252 251 252 253 256 255 255 257 257 254 253 253 254 253 252 252 253 255 257 261 267 272 278 284 287 290 293 296 297 301 296 287 281 276 268 262 258 249 241 236 230 225 222
254 254 254 254 255 257 259 260 259 256 251 248 250 251 251 251 251 254 258 264 268 276 282 288 293 296 299 297 301 299 299 315 312 302 280 263 255 247 241 235 228 223 217
250 251 253 254 256 256 256 257 262 258 251 249 248 247 249 250 252 255 259 263 270 280 287 293 298 296 298 305 301 295 308 326 314 304 311 286 260 247 240 232 224 219 214
245 245 248 251 254 258 260 259 258 261 256 252 251 249 249 252 252 255 258 264 273 284 291 296 301 298 310 312 296 297 301 315 317 308 302 302 273 250 236 225 219 212 208
244 244 246 248 251 255 259 261 260 260 260 254 252 251 251 252 251 252 256 263 276 287 294 304 302 301 318 320 316 308 324 324 324 309 329 314 287 251 231 221 211 204 199
240 241 243 245 247 249 255 258 259 257 259 255 251 250 248 248 247 249 253 265 278 287 299 309 297 312 323 314 327 334 334 336 326 313 313 339 301 254 225 214 204 195 190
240 240 239 238 239 243 248 253 258 258 256 255 250 248 247 246 243 246 252 264 275 286 300 311 293 307 318 318 340 347 349 346 341 343 54 335 308 237 207 197 190 186 177
242 238 235 238 237 239 243 247 254 257 256 253 251 249 247 245 241 243 251 261 271 283 298 314 286 295 320 306 318 350 349 2 10 32 19 11 320 207 181 179 182 180 181
250 248 243 239 239 238 242 244 248 255 256 251 249 248 245 243 239 242 249 258 267 279 293 312 295 282 296 314 308 356 350 354 19 23 28 48 53 164 152 151 162 171 181
246 245 242 241 240 240 242 241 245 250 253 250 248 248 245 241 238 239 246 253 263 275 289 301 310 279 282 300 303 337 341 339 346 14 31 79 160 151 127 130 160 173 184
248 246 241 240 239 238 241 242 243 246 249 249 248 247 244 240 238 236 241 247 256 267 280 294 313 300 276 296 300 308 335 340 342 349 13 105 165 183 173 178 183 181 194
Height
5656 5660 5664 5670 5674 5679 5683 5688 5693 5697 5701 5704 5707 5710 5714 5717 5721 5724 5728 5731 5734 5737 5739 5742 5745 5748 5751 5753 5755 5758 5761 5763 5766 5771 5775 5780 5785 5787 5792 5798 5802 5809 5811
5643 5648 5652 5656 5660 5665 5669 5674 5678 5683 5687 5691 5694 5697 5701 5704 5708 5711 5715 5719 5722 5725 5727 5730 5732 5736 5739 5741 5744 5747 5750 5753 5755 5758 5763 5768 5774 5778 5781 5787 5793 5797 5801
5628 5632 5636 5640 5645 5649 5655 5660 5664 5668 5673 5677 5680 5684 5687 5691 5695 5698 5702 5705 5709 5711 5713 5716 5719 5722 5725 5728 5731 5734 5737 5741 5743 5746 5748 5752 5758 5765 5769 5774 5781 5787 5791
5613 5617 5621 5627 5630 5636 5641 5645 5650 5654 5658 5663 5667 5671 5675 5679 5682 5686 5689 5691 5694 5697 5699 5703 5706 5709 5712 5714 5716 5719 5723 5726 5729 5732 5735 5737 5742 5749 5756 5762 5766 5773 5779
5601 5603 5607 5611 5616 5621 5625 5630 5635 5640 5645 5649 5653 5657 5662 5666 5669 5672 5674 5677 5680 5682 5685 5689 5692 5694 5698 5700 5702 5705 5707 5710 5714 5716 5720 5724 5727 5731 5740 5749 5752 5756 5766
5586 5589 5594 5598 5602 5606 5611 5616 5621 5626 5631 5635 5639 5643 5647 5651 5654 5657 5660 5663 5665 5668 5671 5674 5677 5679 5682 5684 5687 5689 5692 5694 5698 5699 5703 5708 5713 5716 5719 5730 5737 5740 5750
5572 5576 5580 5583 5588 5592 5597 5602 5607 5611 5616 5621 5625 5629 5633 5635 5638 5642 5645 5648 5651 5653 5656 5659 5661 5663 5666 5668 5670 5672 5675 5678 5682 5683 5686 5690 5696 5699 5702 5709 5720 5723 5728
5560 5563 5567 5571 5575 5579 5584 5588 5593 5597 5601 5606 5610 5614 5617 5620 5623 5627 5631 5633 5636 5639 5641 5643 5645 5646 5648 5650 5652 5655 5657 5659 5662 5666 5667 5672 5677 5680 5685 5691 5696 5703 5709
5548 5551 5554 5559 5563 5567 5571 5575 5579 5583 5587 5590 5595 5599 5602 5606 5609 5613 5616 5619 5621 5623 5625 5626 5628 5629 5631 5631 5633 5635 5636 5638 5640 5644 5647 5653 5657 5661 5666 5670 5674 5682 5685
5537 5540 5543 5546 5550 5554 5558 5561 5564 5568 5572 5576 5580 5584 5588 5592 5596 5599 5602 5604 5606 5608 5608 5609 5610 5611 5611 5612 5613 5614 5614 5615 5617 5619 5622 5628 5633 5637 5642 5648 5653 5658 5668
5527 5530 5533 5536 5539 5542 5545 5549 5553 5557 5560 5564 5567 5571 5575 5579 5582 5584 5587 5589 5591 5593 5593 5594 5594 5593 5593 5591 5591 5590 5589 5590 5589 5588 5590 5598 5600 5608 5613 5619 5627 5636 5644
5518 5521 5524 5526 5528 5532 5535 5539 5542 5546 5549 5552 5555 5559 5562 5565 5568 5570 5573 5575 5576 5577 5578 5578 5578 5575 5572 5569 5567 5564 5561 5560 5558 5555 5553 5563 5562 5571 5580 5586 5597 5610 5622
5510 5512 5514 5516 5519 5521 5525 5528 5531 5534 5537 5540 5543 5546 5548 5551 5554 5556 5559 5561 5562 5563 5563 5562 5560 5556 5551 5548 5542 5536 5529 5522 5518 5514 5511 5519 5519 5528 5540 5550 5563 5579 5594
5501 5502 5504 5507 5510 5512 5515 5517 5519 5522 5525 5527 5530 5532 5535 5538 5540 5543 5546 5547 5548 5548 5548 5546 5542 5537 5531 5523 5513 5503 5493 5483 5473 5465 5462 5466 5464 5476 5487 5504 5523 5543 5560
5491 5492 5494 5497 5499 5501 5503 5505 5508 5510 5512 5514 5517 5519 5522 5525 5528 5531 5533 5534 5534 5533 5532 5529 5524 5518 5509 5497 5485 5472 5461 5449 5440 5432 5426 5425 5422 5431 5439 5451 5476 5499 5523
5480 5483 5485 5487 5489 5491 5492 5493 5495 5497 5500 5502 5505 5507 5510 5513 5516 5518 5520 5520 5520 5519 5516 5512 5507 5497 5486 5473 5462 5449 5436 5422 5409 5399 5392 5389 5386 5394 5403 5413 5435 5456 5485
5469 5472 5475 5477 5479 5480 5482 5483 5484 5485 5488 5490 5493 5495 5498 5500 5503 5505 5506 5507 5507 5505 5502 5497 5488 5476 5466 5456 5444 5432 5417 5400 5385 5372 5363 5356 5355 5361 5368 5380 5400 5418 5447
5456 5460 5463 5466 5468 5469 5471 5472 5474 5475 5476 5479 5481 5483 5485 5488 5490 5492 5493 5495 5494 5491 5487 5480 5470 5460 5452 5442 5427 5413 5400 5385 5369 5354 5340 5329 5327 5328 5334 5347 5364 5386 5418
5443 5447 5451 5454 5457 5459 5460 5461 5462 5464 5465 5468 5469 5471 5473 5476 5478 5480 5482 5483 5481 5478 5473 5465 5455 5448 5441 5428 5416 5402 5386 5368 5351 5334 5321 5309 5303 5305 5308 5318 5337 5361 5395
5429 5434 5439 5442 5445 5447 5449 5449 5450 5452 5453 5456 5458 5460 5462 5464 5466 5469 5471 5472 5469 5465 5458 5449 5442 5437 5429 5417 5405 5391 5374 5356 5337 5320 5307 5294 5290 5288 5292 5303 5320 5347 5387
5414 5420 5425 5430 5433 5436 5437 5438 5440 5440 5442 5444 5447 5449 5451 5454 5456 5458 5461 5460 5457 5453 5446 5438 5432 5426 5420 5410 5398 5383 5364 5344 5327 5316 5301 5289 5282 5282 5288 5302 5324 5357 5392
5402 5406 5412 5416 5420 5423 5426 5427 5429 5430 5431 5434 5436 5438 5440 5443 5445 5448 5449 5448 5446 5442 5436 5429 5423 5418 5413 5406 5394 5380 5364 5343 5324 5307 5296 5292 5288 5288 5294 5308 5332 5361 5393
5388 5392 5397 5402 5406 5410 5414 5417 5418 5419 5420 5422 5425 5428 5429 5431 5434 5437 5438 5437 5436 5432 5427 5422 5416 5410 5407 5402 5394 5384 5370 5350 5332 5316 5306 5303 5302 5303 5309 5322 5337 5365 5398
5377 5382 5385 5389 5393 5398 5402 5405 5408 5409 5410 5412 5414 5417 5419 5421 5424 5426 5427 5428 5426 5423 5419 5416 5409 5403 5402 5399 5394 5389 5380 5365 5350 5339 5329 5325 5324 5327 5340 5354 5371 5393 5419
5365 5369 5373 5377 5380 5386 5390 5393 5396 5398 5400 5402 5403 5406 5408 5411 5413 5416 5418 5419 5417 5415 5412 5410 5406 5398 5397 5396 5392 5390 5385 5376 5366 5362 5359 5356 5357 5359 5365 5375 5397 5414 5429
5355 5358 5363 5368 5371 5374 5378 5382 5385 5388 5390 5392 5394 5395 5398 5400 5403 5406 5408 5409 5409 5408 5405 5403 5402 5395 5392 5391 5388 5387 5387 5381 5373 5372 5371 5372 5378 5381 5390 5398 5406 5417 5429